PROBA-1 1 26958U 01049B 26036.22050639 .00002692 00000+0 17922-3 0 9990 2 26958 97.9610 40.1913 0054963 207.9234 151.9040 15.06841772323746 CUTE-1 (CO-55) 1 27844U 03031E 26036.17756861 .00000442 00000+0 21069-3 0 9990 2 27844 98.6774 46.3829 0009139 203.0782 156.9987 14.24237805172881 CUBESAT XI-IV (CO-57) 1 27848U 03031J 26035.95980955 .00000380 00000+0 18611-3 0 9992 2 27848 98.6803 45.9868 0008714 223.0239 137.0259 14.23537045172568 APRIZESAT 4 1 35684U 09041D 26036.14833869 .00001104 00000+0 13859-3 0 9993 2 35684 98.1552 108.7905 0044098 31.3337 329.0490 14.83641319891783 APRIZESAT 3 1 35686U 09041F 26036.13392270 .00003293 00000+0 28984-3 0 9996 2 35686 98.1834 183.2315 0062968 142.4352 218.1292 14.95736724896633 PROBA-2 1 36037U 09059B 26035.49962720 .00000372 00000+0 97351-4 0 9997 2 36037 98.2401 220.7008 0012632 335.3154 24.7437 14.54764948862232 APRIZESAT 5 1 37792U 11044E 26036.05101877 .00001713 00000+0 22451-3 0 9992 2 37792 98.2390 325.4397 0053876 68.7193 291.9759 14.80746786779238 APRIZESAT 6 1 37793U 11044F 26036.17997007 .00001103 00000+0 16311-3 0 9995 2 37793 98.2444 303.9547 0043942 146.7615 12.2978 14.76682090777660 PROBA-V 1 39159U 13021A 26035.91213197 .00000097 00000+0 60489-4 0 9999 2 39159 98.3455 21.1424 0004689 146.4159 213.7318 14.23564832662292 APRIZESAT 7 1 39416U 13066A 26036.11430222 .00002126 00000+0 21761-3 0 9991 2 39416 97.7550 351.3992 0034582 290.2637 69.4865 14.91159046661541 APRIZESAT 8 1 39425U 13066K 26036.16123397 .00002072 00000+0 23139-3 0 9999 2 39425 97.8076 345.6232 0046327 2.3960 357.7470 14.87310066660044 BUGSAT-1 (TITA) 1 40014U 14033E 26036.19315410 .00006141 00000+0 33861-3 0 9996 2 40014 98.0478 121.1722 0027836 271.3083 88.4958 15.14058345635858 SAUDISAT 4 1 40016U 14033G 26035.96113748 .00001380 00000+0 18894-3 0 9991 2 40016 97.7351 186.8453 0045816 142.4396 218.0032 14.79317178626528 APRIZESAT 9 1 40018U 14033J 26036.18470820 .00001141 00000+0 17577-3 0 9997 2 40018 97.8832 172.7943 0065083 264.6473 94.7308 14.73996845624110 APRIZESAT 10 1 40019U 14033K 26035.94231142 .00000756 00000+0 12662-3 0 9994 2 40019 97.9437 166.0303 0078496 337.0241 22.7461 14.70696359622819 TECHDEMOSAT-1 (TDS-1) 1 40076U 14037H 26035.88141425 .00015643 00000+0 94452-3 0 9996 2 40076 98.3739 15.2984 0006889 12.1584 347.9808 15.10796988628233 TECHNOSAT 1 42829U 17042E 26036.03000762 .00005790 00000+0 42213-3 0 9999 2 42829 97.4098 198.9315 0017953 179.4813 180.6435 15.03966911466833 FLYING LAPTOP 1 42831U 17042G 26036.16619013 .00002875 00000+0 23344-3 0 9996 2 42831 97.4217 197.3068 0015404 208.1925 151.8467 15.00284080466652 HAWK-A 1 43765U 18099H 26036.08705769 .00010872 00000+0 46080-3 0 9999 2 43765 97.4118 90.0897 0037153 32.2996 328.0504 15.22673162392988 HAWK-B 1 43794U 18099AN 26036.08890515 .00010001 00000+0 44650-3 0 9990 2 43794 97.4167 89.7678 0034452 48.7931 311.6265 15.21017484392942 HAWK-C 1 43799U 18099AT 26036.08452017 .00012762 00000+0 48922-3 0 9998 2 43799 97.4095 90.3859 0043406 34.4652 325.9387 15.25748702393758 SALSAT 1 46495U 20068K 26035.92599215 .00013119 00000+0 48960-3 0 9996 2 46495 97.8829 31.1802 0011826 52.9908 307.2410 15.27479953295150 HAWK-2C 1 47502U 21006CT 26036.10450418 .00011093 00000+0 35297-3 0 9999 2 47502 97.2480 83.0844 0005964 327.0031 33.0839 15.32737492279251 HAWK-2A 1 47505U 21006CW 26036.10802970 .00010999 00000+0 35004-3 0 9996 2 47505 97.2519 83.6875 0005728 331.4260 28.6668 15.32735618279256 HAWK-2B 1 47508U 21006CZ 26036.03949671 .00010574 00000+0 33665-3 0 9991 2 47508 97.2387 82.1746 0006185 328.1729 31.9139 15.32730605279244 HAWK-3B 1 48931U 21059BE 26036.03342660 .00044390 00000+0 56967-3 0 9998 2 48931 97.6707 221.2841 0006478 91.7319 268.4678 15.58992498257193 HAWK-3C 1 48948U 21059BX 26036.03322677 .00053920 00000+0 69034-3 0 9990 2 48948 97.6862 226.7142 0006969 92.4653 267.7401 15.59007831257196 HAWK-3A 1 48957U 21059CG 26036.03305450 .00047027 00000+0 60304-3 0 9992 2 48957 97.6793 224.0329 0006525 91.2493 268.9510 15.59000069257194 HAWK-5C 1 52754U 22057Y 26035.98913765 .00027546 00000+0 56509-3 0 9994 2 52754 97.6416 187.8178 0005010 182.5943 177.5280 15.46003311205883 HAWK-5B 1 52756U 22057AA 26036.18315966 .00027173 00000+0 55733-3 0 9992 2 52756 97.6400 186.3674 0005081 177.4265 182.7011 15.46012223205917 HAWK-5A 1 52757U 22057AB 26036.18290397 .00028112 00000+0 57639-3 0 9994 2 52757 97.6410 187.1980 0005492 178.7707 181.3556 15.46012664205917 HAWK-6B 1 55324U 23011A 26036.05469601 .00008145 00000+0 36318-3 0 9995 2 55324 40.5146 41.9196 0003314 211.0055 149.0559 15.21444140167706 HAWK-6C 1 55326U 23011C 26036.05408345 .00008319 00000+0 37072-3 0 9996 2 55326 40.4834 38.8761 0003053 199.0358 161.0337 15.21443222167714 HAWK-6A 1 55327U 23011D 26036.05409519 .00008110 00000+0 36167-3 0 9994 2 55327 40.4994 40.4398 0002739 203.4148 156.6536 15.21443082167719 HAWK-7A 1 56191U 23054P 26035.92224574 .00009416 00000+0 34879-3 0 9990 2 56191 97.2920 286.5807 0007960 199.0389 161.0554 15.27828705156841 HAWK-7B 1 56193U 23054R 26036.11861541 .00009543 00000+0 35340-3 0 9990 2 56193 97.2904 284.9802 0008244 208.0461 152.0336 15.27830436156875 HAWK-7C 1 56200U 23054Y 26036.11836272 .00009058 00000+0 33560-3 0 9995 2 56200 97.2885 285.7914 0007606 205.2633 154.8236 15.27833630156874